Regional Weather Roundup
Issued by NWS

Home | Current Version | Previous Version | Graphics & Text | Print | Product List | Glossary On
Versions: 1 2 3 4 5 6 7 8 9 10 11 12 13 14 15 16 17 18 19 20 21 22 23 24 25 26 27 28 29 30 31 32 33 34 35 36 37 38 39 40 41 42 43 44 45 46 47 48 49 50
000
ASUS43 KOAX 161110
RWRNE

WEATHER ROUNDUP FOR NEBRASKA
NATIONAL WEATHER SERVICE OMAHA NE
500 AM CST MON JAN 16 2017

NOTES: SATELLITE DATA IS BEING USED TO AUGMENT CLOUD COVER ABOVE
       12000 FEET.
       "FAIR" INDICATES FEW OR NO CLOUDS BELOW 12,000 FEET WITH NO
       SIGNIFICANT WEATHER AND/OR OBSTRUCTIONS TO VISIBILITY.

  * THESE STATIONS DO NOT REPORT WEATHER SUCH AS RAIN...SNOW OR FOG.

NEZ001>004-019>022-054>056-161200-
NEBRASKA PANHANDLE

CITY           SKY/WX    TMP DP  RH WIND       PRES   REMARKS
SCOTTSBLUFF    CLOUDY    33  27  78 W8        29.99F WCI  26
ALLIANCE       CLOUDY    31  24  75 N8        29.98S WCI  23
CHADRON        CLOUDY    28  21  75 W5        30.06R WCI  23
KIMBALL        LGT SNOW  31  31 100 N12       29.96S WCI  22
SIDNEY         LGT SNOW  29  27  92 N17       29.95S FOG     WCI  17
$$

NEZ057>060-069>072-079>082-161200-
SOUTHWEST NEBRASKA

CITY           SKY/WX    TMP DP  RH WIND       PRES   REMARKS
NORTH PLATTE   CLOUDY    32  31  96 NE6       29.97S FOG     WCI  26
IMPERIAL       FRZ RAIN  31  30  96 NE12      29.94F FOG     WCI  22
LEXINGTON      CLOUDY    31  30  95 N8        29.96F FOG     WCI  24
MCCOOK         FRZ RAIN  32  31  96 N12       29.93F FOG     WCI  23
OGALLALA       MIX PCPN  34  33  96 N3        29.96R
$$

NEZ005>010-023>029-035>040-094-161200-
NORTH CENTRAL NEBRASKA

CITY           SKY/WX    TMP DP  RH WIND       PRES   REMARKS
VALENTINE      CLOUDY    27  22  81 NW3       30.02F
AINSWORTH      MIX PCPN  32  31  98 N3        30.01S
BROKEN BOW     CLOUDY    31  30  96 N5        29.98F FOG     WCI  26
O`NEILL        MIX PCPN  32  32 100 CALM      30.04S
ORD            CLOUDY    31  29  92 NE6       30.00F FOG     WCI  25
THEDFORD       MIX PCPN  32  32  99 CALM      29.99S
$$

NEZ041-046>049-061>064-073>077-083>087-161200-
SOUTH CENTRAL NEBRASKA

CITY           SKY/WX    TMP DP  RH WIND       PRES   REMARKS
GRAND ISLAND   CLOUDY    30  30 100 NE10      29.99F FOG     WCI  21
AURORA         CLOUDY    31  31  99 NE8       29.98F FOG     WCI  24
HASTINGS       MIX PCPN  31  30  96 NE13      29.96F FOG     WCI  21
HEBRON         MIX PCPN  32  31  97 NE9       29.95F WCI  24
HOLDREGE       MIX PCPN  31  30  96 N12       29.93F WCI  22
KEARNEY *      CLOUDY    30  27  86 NE12      29.96F WCI  21
YORK           CLOUDY    32  32 100 CALM      29.99F FOG
$$

NEZ011>018-030>034-042>045-161200-
NORTHEAST NEBRASKA

CITY           SKY/WX    TMP DP  RH WIND       PRES   REMARKS
NORFOLK        FRZ RAIN  30  29  96 NE5       30.04F FOG     WCI  25
ALBION         MIX PCPN  31  30  94 NE7       30.02F WCI  25
BLAIR          CLOUDY    32  32  99 NE8       30.04F FOG     WCI  25
FREMONT        CLOUDY    32  32 100 NE6       30.05F FOG     WCI  26
TEKAMAH        CLOUDY    32  31  96 N5        30.07F FOG     WCI  27
WAYNE          MIX PCPN  31  31  99 E3        30.07S
$$

NEZ050>053-065>068-078-088>093-161200-
SOUTHEAST NEBRASKA

CITY           SKY/WX    TMP DP  RH WIND       PRES   REMARKS
LINCOLN        MIX PCPN  32  31  96 NE13      30.03F FOG     WCI  22
OMAHA EPPLEY   LGT RAIN  33  29  85 NE6       30.06F FOG     WCI  28
BEATRICE       LGT RAIN  32  32  99 NE7       29.98F WCI  26
FALLS CITY     FRZ RAIN  32  32 100 NE9       29.99F FOG     WCI  24
NEBRASKA CITY  CLOUDY    32  32 100 NE9       30.01F FOG     WCI  24
PLATTSMOUTH    MIX PCPN  32  30  94 NE9       30.04F VSB 1   WCI  24
$$

NEZ044-045-051>053-067-161200-
OMAHA AREA

CITY           SKY/WX    TMP DP  RH WIND       PRES   REMARKS
OMAHA EPPLEY   LGT RAIN  33  29  85 NE6       30.06F FOG     WCI  28
BLAIR          CLOUDY    32  32  99 NE8       30.04F FOG     WCI  25
FREMONT        CLOUDY    32  32 100 NE6       30.05F FOG     WCI  26
MILLARD        DRIZZLE   34  33  95 CALM      30.05F
OFFUTT AFB     LGT RAIN  32  32 100 NE7       30.04F WCI  26
PLATTSMOUTH    MIX PCPN  32  30  94 NE9       30.04F VSB 1   WCI  24
WAHOO          MIX PCPN  32  31  96 NE9       30.04F VSB 1   WCI  24
$$




USA.gov is the U.S. government's official web portal to all federal, state and local government web resources and services.